St. Augustine, FL

2:54 AM EST on January 17, 2018 (GMT -0500)
Saint Augustine

Weather History for KSGJ - April, 2014

Change the Weather History Date:

Monday, April 14, 2014

  Actual Average Record
Temperature  
Mean Temperature 74 °F -  
Max Temperature 81 °F 74 °F 89 °F (1979)
Min Temperature 66 °F 56 °F 44 °F (2004)
Cooling Degree Days 8    
Growing Degree Days 24 (Base 50)    
Moisture  
Dew Point 68 °F    
Average Humidity 80    
Maximum Humidity 90    
Minimum Humidity 69    
Precipitation  
Precipitation 0.00 in - - ()
Sea Level Pressure  
Sea Level Pressure 29.98 in    
Wind  
Wind Speed 8 mph (SSE)    
Max Wind Speed 18 mph    
Max Gust Speed 28 mph    
Visibility 10 miles    
Events      
Averages and records for this station are not official NWS values.
T = Trace of Precipitation, MM = Missing Value Source: NWS Daily Summary

Daily Weather History Graph

Daily Weather History Graph

Search for Another Location

Airport or City:

Trip Planner

Search our weather history database for the weather conditions in past years. The results will help you decide how hot, cold, wet, or windy it might be!

Date:

Astronomy

Apr. 14, 2014 Rise Set
Actual Time 6:59 AM EDT 7:51 PM EDT
Civil Twilight 6:35 AM EDT 8:16 PM EDT
Nautical Twilight 6:06 AM EDT 8:45 PM EDT
Astronomical Twilight 5:36 AM EDT 9:15 PM EDT
Moon 7:30 PM EDT (4/14) 6:27 AM EDT (4/14)
Length of Visible Light 13h 41m
Length of Day
12h 52m
Full, 100% of the Moon is Illuminated
Apr 14
Full
Apr 15
Full
Apr 22
Last Quarter
Apr 29
New
May 6
First Quarter

Hourly Weather History & Observations

Time (EDT) Temp. Heat Index Dew Point Humidity Pressure Visibility Wind Dir Wind Speed Gust Speed Precip Events Conditions
12:58 AM 70.0 °F - 66.0 °F 87% 30.07 in 10.0 mi SE 8.1 mph - N/A   Clear
1:58 AM 69.1 °F - 64.9 °F 87% 30.06 in 10.0 mi SSE 5.8 mph - N/A   Clear
2:58 AM 68.0 °F - 64.9 °F 90% 30.04 in 10.0 mi Calm Calm - N/A   Clear
3:58 AM 68.0 °F - 64.0 °F 87% 30.02 in 10.0 mi Calm Calm - N/A   Partly Cloudy
4:58 AM 66.0 °F - 63.0 °F 90% 30.01 in 10.0 mi Calm Calm - N/A   Partly Cloudy
5:58 AM 68.0 °F - 64.9 °F 90% 30.00 in 10.0 mi Calm Calm - N/A   Overcast
6:58 AM 69.1 °F - 66.0 °F 90% 30.00 in 10.0 mi SSE 5.8 mph - N/A   Overcast
7:58 AM 71.1 °F - 66.9 °F 87% 30.00 in 10.0 mi SSE 8.1 mph - N/A   Overcast
8:58 AM 73.0 °F - 68.0 °F 84% 30.01 in 10.0 mi SE 5.8 mph - N/A   Overcast
9:58 AM 77.0 °F - 69.1 °F 76% 30.02 in 10.0 mi SSE 11.5 mph - N/A   Mostly Cloudy
10:12 AM 78.8 °F - 69.8 °F 74% 30.02 in 10.0 mi SE 13.8 mph - N/A   Mostly Cloudy
10:58 AM 78.1 °F - 69.1 °F 74% 30.02 in 10.0 mi SSE 13.8 mph 20.7 mph N/A   Overcast
11:21 AM 78.8 °F - 69.8 °F 74% 30.02 in 10.0 mi South 17.3 mph 23.0 mph N/A   Overcast
11:47 AM 78.8 °F - 69.8 °F 74% 30.02 in 10.0 mi SE 13.8 mph 20.7 mph N/A   Overcast
11:58 AM 78.1 °F - 69.1 °F 74% 30.02 in 10.0 mi SE 15.0 mph - N/A   Overcast
12:17 PM 78.8 °F - 69.8 °F 74% 30.02 in 10.0 mi SE 13.8 mph - N/A   Overcast
12:58 PM 80.1 °F 83.2 °F 70.0 °F 71% 30.00 in 10.0 mi SSE 18.4 mph 27.6 mph 0.00 in   Mostly Cloudy
1:58 PM 81.0 °F 84.4 °F 70.0 °F 69% 29.98 in 10.0 mi SE 17.3 mph 24.2 mph N/A   Clear
2:58 PM 81.0 °F 84.9 °F 71.1 °F 72% 29.95 in 10.0 mi SE 18.4 mph - N/A   Clear
3:58 PM 80.1 °F 83.2 °F 70.0 °F 71% 29.93 in 10.0 mi SE 15.0 mph 24.2 mph N/A   Partly Cloudy
4:58 PM 78.1 °F - 69.1 °F 74% 29.91 in 10.0 mi SE 16.1 mph - N/A   Mostly Cloudy
5:58 PM 77.0 °F - 70.0 °F 79% 29.90 in 10.0 mi SE 13.8 mph - N/A   Clear
6:58 PM 75.9 °F - 70.0 °F 82% 29.88 in 10.0 mi SE 15.0 mph 19.6 mph N/A   Partly Cloudy
7:58 PM 75.0 °F - 70.0 °F 84% 29.89 in 10.0 mi SSE 11.5 mph - N/A   Overcast
8:58 PM 73.0 °F - 70.0 °F 90% 29.89 in 10.0 mi SSE 6.9 mph - N/A   Clear
9:58 PM 73.0 °F - 68.0 °F 84% 29.91 in 10.0 mi SSW 4.6 mph - N/A   Clear
10:58 PM 72.0 °F - 64.0 °F 76% 29.91 in 10.0 mi SW 5.8 mph - N/A   Clear
11:58 PM 71.1 °F - 63.0 °F 75% 29.89 in 10.0 mi South 4.6 mph - N/A   Clear